"startDT [UTC]","vpos","CH4 [ppm]","stdev(CH4) [ppm]","CO2 [ppm]","stdev(CO2) [ppm]","H2O [ppm]","stdev(H2O)","p_LGR [torr]","T_LGR [C]","mt1_LGR [us]","mt2_LGR [us]","T_ECpre [C]","T_EC1 [C]","T_EC2 [C]","p_inlet [hPa]","p_in [hPa]","p_out [hPa]","T_inlet [C]","RH_inlet [%]","dwpt_inlet [C]","T_vent [C]","RH_vent [%]","dwpt_vent [C]","flow_vent [l min-1]","flow_inlet [l min-1]","dwpt_sample [C]","T_room [C]"
2012-10-14 00:00:00,0.0,1.9062,0.0010,398.13,0.39,72.0,39.2,138.20,24.62,24.61,36.31,0.04,-272.75,-272.74,-37,554,-935,18.7,10.8,-12.6,19.1,10.8,-12.3,5.73,2.40,-25.9,24.3
2012-10-14 00:01:00,0.0,1.9060,0.0011,398.15,0.38,65.9,38.4,138.21,24.61,24.61,36.32,0.04,-272.74,-272.74,-37,554,-935,18.7,10.8,-12.5,19.1,10.9,-12.2,5.73,2.40,-25.9,24.3
2012-10-14 00:02:00,0.0,1.9069,0.0010,398.12,0.44,69.5,47.9,138.21,24.60,24.61,36.31,0.04,-272.75,-272.75,-37,554,-935,18.7,10.8,-12.5,19.1,10.9,-12.2,5.73,2.50,-25.9,24.2
2012-10-14 00:03:00,0.0,1.9063,0.0013,398.09,0.40,73.9,41.8,138.21,24.60,24.61,36.31,0.04,-272.74,-272.75,-37,554,-936,18.7,10.8,-12.5,19.1,10.9,-12.3,5.73,2.51,-25.9,24.2
2012-10-14 00:04:00,0.0,1.9061,0.0011,398.05,0.33,62.5,40.3,138.21,24.59,24.61,36.32,0.04,-272.74,-272.75,-37,554,-936,18.7,10.8,-12.6,19.1,10.8,-12.3,5.73,2.42,-25.9,24.2
2012-10-14 00:05:00,0.0,1.9062,0.0012,398.01,0.39,61.7,42.7,138.21,24.59,24.61,36.32,0.04,-272.74,-272.75,-37,554,-936,18.7,10.8,-12.6,19.1,10.8,-12.3,5.73,2.39,-25.9,24.2
2012-10-14 00:06:00,0.0,1.9063,0.0010,398.14,0.40,69.5,40.1,138.21,24.59,24.61,36.31,0.04,-272.75,-272.74,-37,554,-936,18.7,10.8,-12.5,19.1,10.9,-12.2,5.73,2.48,-25.9,24.2
2012-10-14 00:07:00,0.0,1.9061,0.0011,398.11,0.38,70.8,41.5,138.21,24.58,24.61,36.31,0.04,-272.74,-272.74,-37,554,-936,18.7,10.9,-12.5,19.1,10.9,-12.2,5.73,2.53,-25.9,24.2
2012-10-14 00:08:00,0.0,1.9058,0.0010,398.12,0.39,61.2,40.8,138.21,24.57,24.61,36.32,0.04,-272.74,-272.74,-37,554,-935,18.7,10.9,-12.5,19.1,10.9,-12.2,5.73,2.44,-26.0,24.3
2012-10-14 00:09:00,0.0,1.9059,0.0010,398.07,0.38,62.8,40.7,138.21,24.56,24.61,36.31,0.04,-272.75,-272.75,-37,554,-935,18.7,10.9,-12.5,19.1,10.9,-12.2,5.73,2.38,-25.9,24.2
2012-10-14 00:10:00,0.0,1.9058,0.0011,398.18,0.43,69.0,37.7,138.20,24.56,24.61,36.32,0.04,-272.74,-272.75,-37,554,-935,18.7,10.9,-12.5,19.0,10.9,-12.2,5.73,2.46,-25.9,24.2
2012-10-14 00:11:00,0.0,1.9056,0.0012,398.16,0.39,68.6,41.8,138.21,24.55,24.61,36.32,0.04,-272.75,-272.74,-37,554,-935,18.7,10.8,-12.6,19.1,10.8,-12.3,5.73,2.52,-25.9,24.2
2012-10-14 00:12:00,0.0,1.9058,0.0011,398.21,0.37,62.5,40.7,138.20,24.55,24.61,36.31,0.04,-272.74,-272.75,-37,554,-936,18.7,10.7,-12.6,19.1,10.8,-12.3,5.73,2.47,-25.9,24.2
2012-10-14 00:13:00,0.0,1.9054,0.0011,398.21,0.34,56.8,43.5,138.20,24.53,24.61,36.32,0.04,-272.74,-272.75,-37,554,-936,18.7,10.8,-12.6,19.1,10.8,-12.3,5.73,2.38,-26.0,24.2
2012-10-14 00:14:00,0.0,1.9052,0.0012,398.20,0.35,70.1,46.9,138.21,24.52,24.61,36.32,0.04,-272.74,-272.74,-37,554,-936,18.7,10.8,-12.6,19.0,10.8,-12.3,5.73,2.43,-26.0,24.2
2012-10-14 00:15:00,0.0,1.9053,0.0011,398.24,0.36,68.2,48.4,138.20,24.52,24.61,36.31,0.04,-272.75,-272.74,-37,554,-936,18.7,10.8,-12.6,19.1,10.8,-12.3,5.73,2.52,-26.0,24.2
2012-10-14 00:16:00,0.0,1.9048,0.0010,398.27,0.41,51.4,34.8,138.20,24.51,24.61,36.32,0.04,-272.74,-272.75,-37,554,-936,18.7,10.8,-12.6,19.0,10.8,-12.3,5.73,2.49,-25.9,24.2
2012-10-14 00:17:00,0.0,1.9047,0.0009,398.25,0.49,54.3,43.4,138.21,24.50,24.61,36.31,0.04,-272.74,-272.74,-37,554,-936,18.7,10.8,-12.6,19.0,10.8,-12.3,5.73,2.39,-25.9,24.2
2012-10-14 00:18:00,0.0,1.9050,0.0011,398.14,0.38,55.3,41.2,138.21,24.49,24.61,36.32,0.04,-272.74,-272.75,-37,554,-936,18.7,10.8,-12.6,19.0,10.9,-12.2,5.73,2.41,-25.9,24.2
2012-10-14 00:19:00,0.0,1.9046,0.0010,398.16,0.37,59.2,47.0,138.20,24.48,24.61,36.32,0.04,-272.75,-272.75,-37,554,-936,18.7,10.9,-12.5,19.0,10.9,-12.2,5.73,2.50,-25.9,24.2
2012-10-14 00:20:00,0.0,1.9040,0.0010,398.13,0.34,53.9,37.8,138.21,24.47,24.62,36.31,0.04,-272.74,-272.74,-37,554,-935,18.7,10.8,-12.6,19.0,10.9,-12.3,5.73,2.51,-26.0,24.2
2012-10-14 00:21:00,0.0,1.9048,0.0011,398.11,0.30,56.1,43.3,138.21,24.47,24.61,36.31,0.04,-272.74,-272.74,-37,554,-935,18.7,10.8,-12.5,19.0,10.9,-12.3,5.73,2.42,-26.0,24.2
2012-10-14 00:22:00,0.0,1.9053,0.0011,398.24,0.38,64.0,44.6,138.21,24.48,24.61,36.31,0.04,-272.75,-272.75,-37,554,-935,18.7,10.9,-12.5,19.0,10.9,-12.2,5.73,2.39,-26.0,24.2
2012-10-14 00:23:00,0.0,1.9055,0.0011,398.20,0.34,53.9,40.0,138.21,24.47,24.61,36.31,0.04,-272.74,-272.75,-37,554,-935,18.7,11.0,-12.4,19.0,11.0,-12.1,5.73,2.47,-26.0,24.2
2012-10-14 00:24:00,0.0,1.9051,0.0012,398.37,0.34,61.6,46.9,138.21,24.47,24.61,36.30,0.04,-272.74,-272.74,-37,554,-935,18.7,11.0,-12.3,19.0,11.1,-12.0,5.73,2.52,-26.0,24.2
2012-10-14 00:25:00,0.0,1.9051,0.0010,398.19,0.41,68.9,43.3,138.21,24.46,24.61,36.31,0.04,-272.74,-272.75,-37,554,-935,18.7,11.0,-12.3,19.0,11.1,-12.0,5.73,2.46,-26.0,24.2
2012-10-14 00:26:00,0.0,1.9051,0.0011,398.22,0.34,62.2,38.2,138.21,24.46,24.61,36.31,0.04,-272.75,-272.74,-37,554,-935,18.7,11.0,-12.3,19.0,11.1,-12.0,5.73,2.38,-26.0,24.2
2012-10-14 00:27:00,0.0,1.9057,0.0011,398.25,0.37,66.0,40.7,138.21,24.46,24.61,36.31,0.04,-272.75,-272.74,-37,554,-936,18.7,11.0,-12.4,19.0,11.1,-12.0,5.73,2.44,-26.0,24.2
2012-10-14 00:28:00,0.0,1.9054,0.0010,398.21,0.39,56.0,43.9,138.21,24.45,24.61,36.31,0.04,-272.75,-272.75,-37,554,-936,18.7,11.1,-12.3,19.0,11.1,-12.0,5.73,2.52,-26.0,24.2
2012-10-14 00:29:00,0.0,1.9053,0.0011,398.15,0.37,60.4,39.7,138.21,24.45,24.61,36.32,0.04,-272.75,-272.75,-37,554,-936,18.7,11.1,-12.3,19.0,11.1,-12.0,5.73,2.48,-26.0,24.2
2012-10-14 00:30:00,0.0,1.9052,0.0012,398.27,0.39,49.4,44.2,138.21,24.44,24.61,36.31,0.04,-272.74,-272.74,-37,554,-936,18.7,11.0,-12.4,19.0,11.1,-12.0,5.73,2.39,-26.0,24.2
2012-10-14 00:31:00,0.0,1.9055,0.0010,398.36,0.38,68.8,41.5,138.20,24.44,24.61,36.31,0.04,-272.74,-272.74,-37,554,-936,18.7,11.0,-12.4,19.0,11.1,-12.1,5.73,2.41,-25.9,24.2
2012-10-14 00:32:00,0.0,1.9057,0.0011,398.37,0.36,62.6,45.6,138.21,24.44,24.61,36.31,0.04,-272.74,-272.75,-37,554,-936,18.6,11.0,-12.4,19.0,11.1,-12.0,5.73,2.51,-26.0,24.2
2012-10-14 00:33:00,0.0,1.9059,0.0011,398.29,0.41,63.5,40.1,138.21,24.44,24.61,36.31,0.04,-272.74,-272.75,-37,554,-936,18.6,11.1,-12.3,19.0,11.1,-12.0,5.73,2.50,-26.0,24.3
2012-10-14 00:34:00,0.0,1.9051,0.0010,398.34,0.35,53.6,36.2,138.21,24.44,24.62,36.31,0.04,-272.74,-272.74,-36,554,-935,18.6,11.1,-12.3,19.0,11.1,-12.0,5.73,2.40,-26.0,24.2
2012-10-14 00:35:00,0.0,1.9064,0.0011,398.48,0.41,54.8,39.2,138.21,24.44,24.61,36.31,0.04,-272.74,-272.75,-37,554,-935,18.6,11.1,-12.3,19.0,11.1,-12.0,5.73,2.40,-26.0,24.2
2012-10-14 00:36:00,0.0,1.9059,0.0010,398.35,0.33,62.6,45.1,138.20,24.44,24.61,36.31,0.04,-272.74,-272.75,-37,554,-935,18.6,11.1,-12.3,19.0,11.2,-12.0,5.73,2.50,-26.0,24.2
2012-10-14 00:37:00,0.0,1.9059,0.0010,398.28,0.38,68.6,39.0,138.21,24.44,24.61,36.32,0.04,-272.74,-272.75,-37,554,-935,18.6,11.0,-12.4,19.0,11.1,-12.0,5.73,2.52,-26.0,24.2
2012-10-14 00:38:00,0.0,1.9059,0.0013,398.34,0.33,58.3,43.8,138.21,24.44,24.61,36.32,0.04,-272.74,-272.75,-37,554,-935,18.6,11.0,-12.4,19.0,11.1,-12.1,5.73,2.43,-26.0,24.2
2012-10-14 00:39:00,0.0,1.9064,0.0010,398.42,0.36,66.4,35.4,138.21,24.44,24.61,36.31,0.04,-272.75,-272.75,-37,554,-935,18.6,11.0,-12.5,18.9,11.0,-12.1,5.73,2.38,-26.0,24.2
2012-10-14 00:40:00,0.0,1.9067,0.0011,398.49,0.38,70.7,43.3,138.21,24.44,24.61,36.31,0.04,-272.74,-272.74,-37,554,-935,18.6,11.0,-12.5,18.9,11.0,-12.2,5.73,2.47,-26.0,24.2
2012-10-14 00:41:00,0.0,1.9063,0.0010,398.37,0.37,68.5,43.7,138.21,24.43,24.61,36.32,0.04,-272.74,-272.74,-37,554,-935,18.6,10.9,-12.5,18.9,11.0,-12.2,5.73,2.52,-26.0,24.2
2012-10-14 00:42:00,0.0,1.9062,0.0011,398.38,0.39,68.7,40.8,138.21,24.42,24.62,36.31,0.04,-272.75,-272.74,-37,554,-935,18.6,10.9,-12.5,18.9,11.0,-12.2,5.73,2.46,-26.0,24.1
2012-10-14 00:43:00,0.0,1.9073,0.0011,398.46,0.40,58.7,36.9,138.21,24.42,24.61,36.31,0.04,-272.74,-272.75,-37,554,-935,18.6,10.9,-12.5,18.9,11.0,-12.2,5.73,2.39,-26.0,24.2
2012-10-14 00:44:00,0.0,1.9068,0.0011,398.46,0.36,72.2,38.6,138.21,24.42,24.61,36.32,0.04,-272.74,-272.74,-37,554,-935,18.6,10.9,-12.5,18.9,11.0,-12.2,5.73,2.43,-26.0,24.2
2012-10-14 00:45:00,0.0,1.9075,0.0011,398.61,0.35,67.5,43.0,138.21,24.42,24.61,36.31,0.04,-272.74,-272.74,-37,554,-935,18.6,10.9,-12.5,18.9,11.0,-12.2,5.73,2.51,-26.0,24.2
2012-10-14 00:46:00,0.0,1.9073,0.0010,398.50,0.34,72.7,43.2,138.21,24.42,24.61,36.32,0.04,-272.74,-272.75,-37,554,-935,18.6,10.9,-12.5,18.9,11.0,-12.2,5.73,2.50,-26.0,24.2
2012-10-14 00:47:00,0.0,1.9070,0.0011,398.43,0.39,65.5,39.5,138.21,24.42,24.61,36.32,0.04,-272.74,-272.74,-37,554,-935,18.6,10.9,-12.6,18.9,10.9,-12.3,5.73,2.40,-26.0,24.3
2012-10-14 00:48:00,0.0,1.9062,0.0010,398.54,0.31,63.3,45.1,138.21,24.41,24.62,36.32,0.04,-272.74,-272.75,-37,554,-935,18.6,10.9,-12.6,18.9,10.9,-12.3,5.73,2.40,-26.0,24.2
2012-10-14 00:49:00,0.0,1.9069,0.0011,398.53,0.35,61.9,43.4,138.21,24.40,24.61,36.32,0.04,-272.74,-272.75,-37,554,-935,18.6,11.0,-12.5,18.9,11.0,-12.2,5.73,2.49,-26.0,24.3
2012-10-14 00:50:00,0.0,1.9071,0.0011,398.61,0.36,65.9,34.6,138.21,24.40,24.61,36.31,0.04,-272.74,-272.75,-37,554,-935,18.6,11.1,-12.4,18.9,11.1,-12.1,5.73,2.52,-26.0,24.2
2012-10-14 00:51:00,0.0,1.9074,0.0009,398.64,0.35,69.5,41.7,138.21,24.39,24.61,36.31,0.04,-272.74,-272.74,-37,554,-935,18.6,11.1,-12.4,18.9,11.1,-12.0,5.73,2.44,-26.0,24.2
2012-10-14 00:52:00,0.0,1.9079,0.0010,398.54,0.33,72.9,41.8,138.21,24.39,24.61,36.31,0.04,-272.74,-272.74,-37,554,-935,18.6,11.1,-12.4,18.9,11.1,-12.1,5.73,2.39,-26.0,24.2
2012-10-14 00:53:00,0.0,1.9079,0.0012,398.55,0.37,67.3,37.6,138.21,24.39,24.61,36.31,0.04,-272.75,-272.75,-37,554,-936,18.5,11.1,-12.4,18.9,11.1,-12.0,5.73,2.44,-26.0,24.2
2012-10-14 00:54:00,0.0,1.9074,0.0011,398.60,0.40,67.8,38.7,138.21,24.39,24.61,36.31,0.04,-272.74,-272.74,-37,554,-935,18.5,11.0,-12.5,18.9,11.1,-12.1,5.73,2.52,-26.0,24.2
2012-10-14 00:55:00,0.0,1.9076,0.0011,398.65,0.38,64.2,37.8,138.21,24.38,24.61,36.30,0.04,-272.75,-272.74,-37,554,-936,18.5,11.1,-12.4,18.9,11.1,-12.1,5.73,2.48,-26.0,24.2
2012-10-14 00:56:00,0.0,1.9072,0.0011,398.58,0.32,70.2,41.3,138.21,24.37,24.61,36.31,0.24,-271.23,-271.84,-37,554,-936,18.5,11.2,-12.3,18.9,11.2,-12.0,5.42,2.43,-30.3,24.2
2012-10-14 00:57:00,0.0,1.9072,0.0012,398.56,0.36,58.3,44.3,138.21,24.37,24.61,36.31,0.04,-272.74,-272.74,-37,554,-936,18.5,11.2,-12.2,18.9,11.3,-11.9,5.73,2.40,-26.0,24.1
2012-10-14 00:58:00,0.0,1.9070,0.0010,398.55,0.36,61.1,38.6,138.21,24.36,24.61,36.32,0.04,-272.74,-272.74,-37,554,-936,18.5,11.3,-12.2,18.9,11.3,-11.9,5.73,2.48,-26.0,24.2
2012-10-14 00:59:00,0.0,1.9073,0.0014,398.56,0.40,49.4,38.1,138.21,24.36,24.61,36.32,0.04,-272.74,-272.74,-37,554,-936,18.5,11.2,-12.3,18.9,11.3,-11.9,5.73,2.52,-26.0,24.2
2012-10-14 01:00:00,0.0,1.9075,0.0010,398.43,0.36,75.2,43.7,138.21,24.36,24.61,36.32,0.04,-272.75,-272.75,-37,553,-935,18.5,11.2,-12.3,18.9,11.2,-12.0,5.73,2.44,-26.0,24.2
2012-10-14 01:01:00,0.0,1.9075,0.0012,398.68,0.32,64.4,43.4,138.21,24.36,24.61,36.31,0.04,-272.75,-272.74,-37,554,-935,18.5,11.2,-12.3,18.9,11.2,-12.0,5.73,2.38,-26.0,24.2
2012-10-14 01:02:00,0.0,1.9074,0.0009,398.69,0.35,66.7,44.2,138.21,24.37,24.61,36.31,0.04,-272.74,-272.74,-37,554,-935,18.5,11.2,-12.2,18.9,11.3,-11.9,5.73,2.44,-26.0,24.2
2012-10-14 01:03:00,0.0,1.9072,0.0012,398.83,0.34,60.9,40.2,138.21,24.36,24.61,36.31,0.04,-272.75,-272.75,-37,554,-935,18.5,11.3,-12.2,18.9,11.3,-11.9,5.73,2.52,-26.0,24.2
2012-10-14 01:04:00,0.0,1.9074,0.0012,398.73,0.40,59.1,45.9,138.21,24.35,24.61,36.31,0.04,-272.75,-272.75,-37,553,-935,18.5,11.3,-12.2,18.9,11.4,-11.8,5.73,2.49,-26.0,24.2
2012-10-14 01:05:00,0.0,1.9067,0.0011,398.51,0.31,55.6,48.0,138.21,24.34,24.61,36.32,0.04,-272.74,-272.75,-37,553,-934,18.5,11.3,-12.2,18.9,11.3,-11.9,5.73,2.41,-26.0,24.2
2012-10-14 01:06:00,0.0,1.9066,0.0011,398.62,0.39,64.1,36.8,138.21,24.33,24.61,36.31,0.04,-272.75,-272.75,-37,554,-934,18.5,11.3,-12.1,18.9,11.4,-11.8,5.73,2.39,-26.0,24.2
2012-10-14 01:07:00,0.0,1.9063,0.0010,398.53,0.37,53.6,39.7,138.21,24.32,24.61,36.32,0.04,-272.75,-272.74,-37,553,-935,18.5,11.2,-12.2,18.9,11.3,-11.9,5.73,2.47,-26.0,24.2
2012-10-14 01:08:00,0.0,1.9065,0.0011,398.54,0.42,56.0,40.2,138.21,24.32,24.61,36.31,0.04,-272.74,-272.74,-37,554,-935,18.5,11.2,-12.2,18.9,11.3,-11.9,5.73,2.52,-26.0,24.2
2012-10-14 01:09:00,0.0,1.9067,0.0012,398.47,0.38,53.8,39.3,138.21,24.32,24.61,36.32,0.04,-272.74,-272.75,-37,554,-935,18.5,11.2,-12.3,18.9,11.3,-12.0,5.73,2.46,-26.0,24.2
2012-10-14 01:10:00,0.0,1.9075,0.0010,398.56,0.37,65.3,35.9,138.21,24.32,24.61,36.32,0.04,-272.75,-272.75,-37,554,-935,18.5,11.3,-12.2,18.9,11.4,-11.9,5.73,2.39,-26.0,24.2
2012-10-14 01:11:00,0.0,1.9080,0.0010,398.52,0.32,65.9,38.6,138.21,24.32,24.61,36.32,0.04,-272.74,-272.74,-37,553,-935,18.5,11.3,-12.1,18.9,11.4,-11.8,5.73,2.40,-26.0,24.2
2012-10-14 01:12:00,0.0,1.9078,0.0010,398.60,0.39,70.2,40.0,138.21,24.32,24.61,36.32,0.04,-272.74,-272.75,-37,554,-935,18.5,11.4,-12.1,18.9,11.5,-11.7,5.73,2.50,-26.0,24.2
2012-10-14 01:13:00,0.0,1.9076,0.0010,398.68,0.37,73.8,45.0,138.21,24.32,24.61,36.32,0.04,-272.74,-272.75,-37,554,-935,18.5,11.3,-12.1,18.9,11.4,-11.8,5.73,2.51,-26.0,24.2
2012-10-14 01:14:00,0.0,1.9071,0.0011,398.75,0.36,69.0,38.6,138.21,24.31,24.62,36.31,0.04,-272.74,-272.75,-37,553,-935,18.5,11.4,-12.1,18.9,11.4,-11.7,5.73,2.42,-26.0,24.2
2012-10-14 01:15:00,0.0,1.9067,0.0011,398.67,0.41,53.5,37.3,138.21,24.31,24.61,36.32,0.04,-272.75,-272.74,-37,553,-934,18.5,11.3,-12.1,18.9,11.4,-11.8,5.73,2.39,-26.0,24.2
2012-10-14 01:16:00,0.0,1.9068,0.0011,398.74,0.33,53.9,40.6,138.21,24.30,24.61,36.31,0.04,-272.74,-272.75,-37,554,-934,18.5,11.3,-12.2,18.9,11.3,-11.9,5.73,2.45,-26.0,24.2
2012-10-14 01:17:00,0.0,1.9066,0.0011,398.68,0.36,59.6,43.5,138.21,24.29,24.61,36.31,0.04,-272.74,-272.75,-37,554,-935,18.5,11.3,-12.1,18.9,11.4,-11.8,5.73,2.51,-26.0,24.2
2012-10-14 01:18:00,0.0,1.9081,0.0014,398.70,0.38,65.8,41.3,138.21,24.29,24.61,36.31,0.04,-272.74,-272.74,-37,553,-935,18.5,11.4,-12.0,18.9,11.5,-11.7,5.73,2.48,-26.0,24.2
2012-10-14 01:19:00,0.0,1.9078,0.0011,398.71,0.40,64.3,42.7,138.21,24.29,24.61,36.32,0.04,-272.74,-272.74,-37,553,-935,18.5,11.4,-12.0,18.9,11.5,-11.7,5.73,2.41,-26.0,24.2
2012-10-14 01:20:00,0.0,1.9084,0.0011,398.68,0.36,58.9,46.2,138.21,24.29,24.61,36.32,0.04,-272.75,-272.75,-37,554,-935,18.5,11.4,-12.0,18.9,11.5,-11.7,5.73,2.40,-26.0,24.2
2012-10-14 01:21:00,0.0,1.9084,0.0011,398.76,0.38,69.4,43.4,138.21,24.30,24.61,36.32,0.04,-272.74,-272.75,-37,554,-935,18.5,11.3,-12.1,18.9,11.4,-11.8,5.73,2.47,-26.0,24.2
2012-10-14 01:22:00,0.0,1.9082,0.0012,398.76,0.30,66.9,46.4,138.21,24.30,24.61,36.31,0.04,-272.74,-272.74,-37,554,-935,18.5,11.3,-12.1,18.9,11.4,-11.8,5.73,2.51,-26.0,24.2
2012-10-14 01:23:00,0.0,1.9089,0.0010,398.81,0.38,63.1,45.3,138.21,24.30,24.61,36.31,0.04,-272.75,-272.74,-37,554,-935,18.5,11.3,-12.2,18.9,11.3,-11.9,5.73,2.47,-26.0,24.1
2012-10-14 01:24:00,0.0,1.9084,0.0011,398.81,0.40,67.2,36.4,138.21,24.30,24.61,36.32,0.04,-272.74,-272.75,-37,554,-935,18.5,11.2,-12.2,18.9,11.3,-11.9,5.73,2.40,-26.0,24.1
2012-10-14 01:25:00,0.0,1.9087,0.0009,398.75,0.35,59.0,46.8,138.21,24.30,24.61,36.32,0.04,-272.74,-272.74,-37,554,-934,18.5,11.1,-12.3,18.9,11.2,-12.0,5.73,2.41,-26.0,24.1
2012-10-14 01:26:00,0.0,1.9081,0.0010,398.87,0.39,74.3,42.4,138.21,24.29,24.61,36.32,0.04,-272.75,-272.74,-37,553,-934,18.5,11.2,-12.2,18.9,11.3,-11.9,5.73,2.48,-26.0,24.2
2012-10-14 01:27:00,0.0,1.9076,0.0013,398.86,0.40,62.7,41.4,138.21,24.28,24.61,36.32,0.04,-272.75,-272.75,-37,554,-934,18.5,11.2,-12.3,18.9,11.2,-12.0,5.73,2.52,-26.0,24.2
2012-10-14 01:28:00,0.0,1.9074,0.0010,398.89,0.38,62.7,44.2,138.21,24.27,24.61,36.31,0.04,-272.74,-272.74,-37,554,-934,18.5,11.1,-12.4,18.9,11.2,-12.0,5.73,2.45,-26.0,24.2
2012-10-14 01:29:00,0.0,1.9063,0.0011,398.96,0.36,54.0,41.2,138.21,24.26,24.62,36.31,0.04,-272.74,-272.74,-37,553,-935,18.5,11.1,-12.4,18.9,11.2,-12.0,5.73,2.38,-26.0,24.2
2012-10-14 01:30:00,0.0,1.9071,0.0009,398.90,0.36,51.9,35.5,138.21,24.25,24.61,36.32,0.04,-272.74,-272.75,-37,553,-935,18.5,11.2,-12.3,18.9,11.2,-12.0,5.73,2.43,-26.0,24.1
2012-10-14 01:31:00,0.0,1.9067,0.0012,398.86,0.42,64.9,44.1,138.21,24.25,24.61,36.32,0.04,-272.74,-272.74,-37,553,-935,18.5,11.1,-12.4,18.9,11.2,-12.1,5.73,2.50,-26.0,24.1
2012-10-14 01:32:00,0.0,1.9068,0.0011,398.93,0.38,66.7,43.0,138.21,24.25,24.61,36.32,0.04,-272.75,-272.75,-37,553,-935,18.5,11.1,-12.3,18.9,11.2,-12.0,5.73,2.50,-26.0,24.2
2012-10-14 01:33:00,0.0,1.9079,0.0009,399.07,0.33,59.0,43.0,138.21,24.25,24.61,36.31,0.04,-272.74,-272.75,-37,553,-935,18.5,11.2,-12.2,18.9,11.3,-11.9,5.73,2.43,-26.0,24.1
2012-10-14 01:34:00,0.0,1.9076,0.0010,399.04,0.37,56.8,38.4,138.21,24.25,24.61,36.31,0.04,-272.75,-272.75,-37,553,-935,18.5,11.2,-12.3,18.9,11.3,-11.9,5.73,2.38,-26.0,24.1
2012-10-14 01:35:00,0.0,1.9071,0.0009,398.84,0.34,57.7,37.7,138.21,24.25,24.61,36.32,0.04,-272.74,-272.74,-37,553,-935,18.5,11.1,-12.3,18.9,11.2,-12.0,5.73,2.44,-26.0,24.2
2012-10-14 01:36:00,0.0,1.9076,0.0010,398.88,0.43,46.8,36.4,138.21,24.24,24.61,36.31,0.04,-272.74,-272.74,-37,554,-935,18.5,11.1,-12.4,18.9,11.2,-12.0,5.73,2.52,-26.0,24.1
2012-10-14 01:37:00,0.0,1.9077,0.0011,398.93,0.38,67.0,46.6,138.21,24.24,24.61,36.31,0.04,-272.75,-272.75,-37,553,-935,18.5,11.1,-12.3,18.9,11.2,-12.0,5.73,2.49,-26.0,24.1
2012-10-14 01:38:00,0.0,1.9085,0.0011,398.89,0.39,64.7,44.1,138.21,24.24,24.61,36.31,0.04,-272.74,-272.74,-37,553,-934,18.5,11.1,-12.3,18.9,11.2,-12.0,5.73,2.41,-26.0,24.1
2012-10-14 01:39:00,0.0,1.9075,0.0011,398.83,0.37,63.2,48.9,138.21,24.24,24.61,36.32,0.04,-272.74,-272.74,-37,554,-934,18.5,11.1,-12.4,18.9,11.2,-12.0,5.73,2.40,-26.0,24.1
2012-10-14 01:40:00,0.0,1.9077,0.0012,398.96,0.48,50.6,39.3,138.21,24.23,24.61,36.31,0.04,-272.74,-272.75,-37,553,-934,18.5,11.1,-12.4,18.9,11.2,-12.1,5.73,2.46,-26.0,24.1
2012-10-14 01:41:00,0.0,1.9074,0.0010,398.85,0.39,65.1,39.8,138.21,24.23,24.61,36.32,0.04,-272.74,-272.75,-37,553,-934,18.5,11.2,-12.3,18.9,11.3,-11.9,5.73,2.51,-26.0,24.1
2012-10-14 01:42:00,0.0,1.9070,0.0010,398.96,0.42,58.7,39.2,138.21,24.22,24.61,36.32,0.04,-272.74,-272.74,-37,553,-934,18.5,11.2,-12.3,18.9,11.3,-12.0,5.73,2.48,-26.0,24.1
2012-10-14 01:43:00,0.0,1.9071,0.0013,398.95,0.38,60.4,48.7,138.21,24.21,24.61,36.32,0.04,-272.74,-272.74,-37,553,-935,18.5,11.2,-12.3,18.9,11.2,-12.0,5.73,2.41,-26.0,24.1
2012-10-14 01:44:00,0.0,1.9071,0.0012,399.03,0.43,39.2,37.3,138.21,24.21,24.61,36.31,0.04,-272.74,-272.75,-37,554,-935,18.5,11.1,-12.4,18.9,11.2,-12.0,5.73,2.39,-26.0,24.1
2012-10-14 01:45:00,0.0,1.9069,0.0010,398.94,0.42,58.9,44.4,138.21,24.20,24.61,36.32,0.04,-272.74,-272.74,-37,553,-935,18.5,11.0,-12.5,18.9,11.1,-12.1,5.73,2.47,-26.0,24.1
2012-10-14 01:46:00,0.0,1.9065,0.0010,398.86,0.37,51.7,41.7,138.21,24.20,24.61,36.32,0.04,-272.75,-272.75,-37,553,-935,18.5,11.0,-12.5,18.9,11.0,-12.2,5.73,2.51,-26.0,24.1
2012-10-14 01:47:00,0.0,1.9070,0.0010,398.91,0.38,52.3,38.6,138.21,24.19,24.61,36.31,0.04,-272.75,-272.74,-37,554,-935,18.5,11.1,-12.4,18.8,11.1,-12.1,5.73,2.47,-26.0,24.1
2012-10-14 01:48:00,0.0,1.9075,0.0010,398.96,0.32,50.0,37.0,138.21,24.19,24.61,36.32,0.04,-272.74,-272.74,-37,553,-935,18.5,11.2,-12.3,18.9,11.2,-12.0,5.73,2.40,-26.0,24.1
2012-10-14 01:49:00,0.0,1.9073,0.0010,398.79,0.36,57.4,39.8,138.21,24.19,24.61,36.32,0.04,-272.74,-272.75,-37,553,-935,18.5,11.2,-12.3,18.9,11.2,-12.0,5.73,2.40,-26.0,24.1
2012-10-14 01:50:00,0.0,1.9068,0.0010,398.88,0.38,51.4,39.5,138.21,24.18,24.61,36.32,0.04,-272.75,-272.75,-37,553,-934,18.5,11.1,-12.4,18.8,11.1,-12.1,5.73,2.47,-26.0,24.1
2012-10-14 01:51:00,0.0,1.9068,0.0009,398.86,0.34,45.2,35.4,138.21,24.18,24.61,36.32,0.04,-272.74,-272.75,-37,553,-934,18.5,11.2,-12.3,18.8,11.3,-12.0,5.73,2.52,-26.0,24.1
2012-10-14 01:52:00,0.0,1.9068,0.0011,398.80,0.31,41.9,34.6,138.21,24.17,24.61,36.31,0.04,-272.74,-272.74,-37,553,-934,18.5,11.1,-12.4,18.8,11.1,-12.1,5.73,2.46,-26.0,24.1
2012-10-14 01:53:00,0.0,1.9069,0.0009,398.55,0.33,47.0,36.3,138.21,24.17,24.61,36.32,0.04,-272.75,-272.74,-37,553,-934,18.5,11.0,-12.5,18.8,11.1,-12.2,5.73,2.40,-26.0,24.1
2012-10-14 01:54:00,0.0,1.9070,0.0011,398.63,0.30,65.4,43.3,138.21,24.18,24.61,36.31,0.04,-272.74,-272.75,-37,553,-934,18.5,11.0,-12.6,18.8,11.0,-12.2,5.73,2.41,-26.0,24.1
2012-10-14 01:55:00,0.0,1.9072,0.0011,398.66,0.31,59.9,40.3,138.21,24.18,24.61,36.32,0.04,-272.74,-272.74,-37,553,-934,18.5,10.9,-12.6,18.9,11.0,-12.3,5.73,2.48,-26.0,24.1
2012-10-14 01:56:00,0.0,1.9069,0.0009,398.67,0.38,43.1,35.0,138.21,24.18,24.61,36.32,0.04,-272.75,-272.74,-37,553,-935,18.5,10.9,-12.6,18.9,11.0,-12.3,5.73,2.51,-26.0,24.1
2012-10-14 01:57:00,0.0,1.9074,0.0012,398.61,0.30,54.3,36.5,138.21,24.18,24.60,36.32,0.04,-272.75,-272.75,-37,553,-935,18.5,11.0,-12.5,18.9,11.0,-12.2,5.73,2.46,-26.0,24.1
2012-10-14 01:58:00,0.0,1.9064,0.0012,398.52,0.36,52.2,35.6,138.21,24.17,24.61,36.32,0.04,-272.75,-272.74,-37,553,-935,18.5,11.0,-12.6,18.9,11.0,-12.2,5.73,2.39,-26.0,24.1
2012-10-14 01:59:00,0.0,1.9071,0.0010,398.46,0.32,49.5,39.7,138.21,24.17,24.61,36.32,0.04,-272.74,-272.75,-37,554,-935,18.5,10.9,-12.7,18.9,10.9,-12.3,5.73,2.41,-26.0,24.1
2012-10-14 02:00:00,0.0,1.9072,0.0008,398.67,0.38,53.4,41.5,138.21,24.18,24.61,36.31,0.04,-272.75,-272.75,-37,553,-935,18.5,10.8,-12.7,18.9,10.9,-12.4,5.73,2.48,-26.0,24.1
2012-10-14 02:01:00,0.0,1.9072,0.0012,398.54,0.27,67.8,42.5,138.21,24.18,24.61,36.32,0.04,-272.75,-272.75,-37,553,-935,18.5,10.8,-12.7,18.9,10.9,-12.4,5.73,2.52,-26.0,24.1
2012-10-14 02:02:00,0.0,1.9070,0.0011,398.50,0.37,64.3,43.7,138.21,24.18,24.61,36.32,0.04,-272.74,-272.74,-37,554,-935,18.5,10.8,-12.8,18.8,10.8,-12.5,5.73,2.45,-26.0,24.1
2012-10-14 02:03:00,0.0,1.9067,0.0011,398.53,0.39,67.3,49.2,138.21,24.18,24.61,36.31,0.04,-272.75,-272.74,-37,553,-934,18.5,10.7,-12.8,18.8,10.8,-12.5,5.73,2.39,-26.0,24.1
2012-10-14 02:04:00,0.0,1.9069,0.0011,398.42,0.39,58.0,46.1,138.21,24.18,24.61,36.33,0.04,-272.74,-272.75,-37,553,-934,18.5,10.7,-12.9,18.8,10.7,-12.6,5.73,2.42,-26.0,24.1
2012-10-14 02:05:00,0.0,1.9065,0.0010,398.55,0.32,52.5,42.4,138.21,24.17,24.61,36.31,0.04,-272.75,-272.74,-37,553,-934,18.5,10.7,-12.8,18.8,10.8,-12.5,5.73,2.49,-26.0,24.1
2012-10-14 02:06:00,0.0,1.9064,0.0009,398.54,0.39,55.4,38.4,138.21,24.17,24.61,36.32,0.04,-272.74,-272.74,-37,554,-934,18.5,10.7,-12.9,18.8,10.7,-12.6,5.73,2.51,-26.0,24.2
2012-10-14 02:07:00,0.0,1.9067,0.0010,398.41,0.36,56.9,39.4,138.21,24.17,24.61,36.32,0.04,-272.74,-272.75,-37,553,-934,18.5,10.7,-12.9,18.8,10.7,-12.6,5.73,2.45,-26.0,24.2
2012-10-14 02:08:00,0.0,1.9070,0.0011,398.43,0.38,56.1,40.3,138.21,24.17,24.61,36.33,0.04,-272.75,-272.74,-37,553,-934,18.5,10.7,-12.9,18.8,10.8,-12.6,5.73,2.39,-26.0,24.2
2012-10-14 02:09:00,0.0,1.9073,0.0008,398.56,0.33,60.7,42.0,138.21,24.17,24.61,36.32,0.04,-272.74,-272.74,-37,553,-934,18.5,10.7,-12.8,18.8,10.8,-12.5,5.73,2.42,-26.0,24.2
2012-10-14 02:10:00,0.0,1.9072,0.0010,398.53,0.32,50.3,36.0,138.21,24.17,24.61,36.32,0.04,-272.75,-272.74,-36,553,-934,18.4,10.7,-12.9,18.8,10.8,-12.5,5.73,2.49,-26.0,24.2
2012-10-14 02:11:00,0.0,1.9072,0.0010,398.62,0.34,67.8,48.9,138.21,24.18,24.61,36.31,0.04,-272.75,-272.75,-37,553,-935,18.5,10.8,-12.8,18.8,10.8,-12.5,5.73,2.51,-26.0,24.1
2012-10-14 02:12:00,0.0,1.9072,0.0010,398.62,0.34,64.7,43.5,138.21,24.18,24.61,36.32,0.04,-272.74,-272.74,-37,553,-935,18.5,10.8,-12.8,18.8,10.8,-12.5,5.73,2.46,-26.0,24.1
2012-10-14 02:13:00,0.0,1.9071,0.0010,398.66,0.45,58.9,43.8,138.21,24.17,24.61,36.31,0.04,-272.74,-272.74,-37,553,-935,18.5,10.8,-12.7,18.8,10.9,-12.4,5.73,2.39,-26.0,24.1
2012-10-14 02:14:00,0.0,1.9071,0.0011,398.55,0.36,56.3,46.2,138.21,24.16,24.61,36.32,0.04,-272.75,-272.75,-37,553,-935,18.5,10.9,-12.7,18.8,10.9,-12.4,5.73,2.42,-26.0,24.1
2012-10-14 02:15:00,0.0,1.9069,0.0011,398.58,0.32,53.2,40.2,138.21,24.16,24.61,36.32,0.04,-272.74,-272.74,-37,553,-935,18.5,10.8,-12.8,18.8,10.9,-12.4,5.73,2.48,-26.0,24.1
2012-10-14 02:16:00,0.0,1.9070,0.0011,398.48,0.39,55.8,34.5,138.21,24.15,24.61,36.33,0.04,-272.74,-272.74,-37,553,-935,18.5,10.9,-12.7,18.8,10.9,-12.4,5.73,2.51,-26.0,24.1